Location: Aixovall
(42.4760°N, 1.4902°E)
Time: 06:51:05
(UTC+00:00)

Cosmos 2266 Rocket - Pass Details

Date: 27 November 2025
Orbit: 933 x 1006 km, 82.9° (Epoch: 08 December)

Event Time Altitude Azimuth Distance (km) Brightness Sun altitude
Rises 19:08:23 0° 350° (N) 3,698 7.1 -29.9°
Reaches altitude 10° 19:10:56 10° 349° (N) 2,735 6.4 -30.4°
Maximum altitude 19:17:10 75° 265° (W) 1,000 4.0 -31.5°
Enters shadow 19:17:34 72° 232° (SW) 1,012 4.0 -31.6°
Exits shadow 19:23:46 - 181° (S) 2,862 6.4 -32.7°
Sets 19:25:42 0° 180° (S) 3,600 7.0 -33.1°
